BAW459 EGKK-EDDF

Flight info

Callsign BAW459
Flight time 1h 4m
Altitude 35000
Route MIMFO Y312 DVR UL9 KONAN DCT KOK UL607 FERDI DCT SPI T180 NIVNU/N0390F230 T847 IMCOM IMCOM1A
Aircraft A321/M-SDE3FGHIRWY/LB1

Departure

Time 2026-05-04 00:20
Airport London Gatwick Airport (EGKK)

Arrival

Time 2026-05-04 01:24
Airport Frankfurt Main Airport (EDDF)
Time Latitude Longitude Altitude Speed Heading
2026-05-03 23:59 51.15488 -0.16448 205 ft 0 kts 76°
2026-05-04 00:13 51.15484 -0.16472 214 ft 4 kts 77°
2026-05-04 00:13 51.15480 -0.16513 212 ft 4 kts 102°
2026-05-04 00:14 51.15487 -0.16534 209 ft 0 kts 166°
2026-05-04 00:14 51.15488 -0.16534 209 ft 0 kts 166°
2026-05-04 00:16 51.15486 -0.16533 209 ft 1 kts 166°
2026-05-04 00:16 51.15474 -0.16528 214 ft 3 kts 166°
2026-05-04 00:16 51.15446 -0.16518 205 ft 5 kts 167°
2026-05-04 00:17 51.15403 -0.16503 205 ft 8 kts 167°
2026-05-04 00:17 51.15342 -0.16481 213 ft 10 kts 167°
2026-05-04 00:17 51.15302 -0.16504 215 ft 7 kts 235°
2026-05-04 00:17 51.15289 -0.16583 205 ft 9 kts 258°
2026-05-04 00:18 51.15279 -0.16641 207 ft 6 kts 242°
2026-05-04 00:18 51.15239 -0.16651 210 ft 7 kts 175°
2026-05-04 00:18 51.15183 -0.16642 210 ft 9 kts 175°
2026-05-04 00:18 51.15138 -0.16701 212 ft 9 kts 252°
2026-05-04 00:19 51.15136 -0.16710 210 ft 0 kts 256°
2026-05-04 00:19 51.15135 -0.16722 209 ft 3 kts 256°
2026-05-04 00:19 51.15108 -0.16910 209 ft 50 kts 257°
2026-05-04 00:19 51.14976 -0.17862 213 ft 124 kts 257°
2026-05-04 00:20 51.14754 -0.19507 380 ft 166 kts 257°
2026-05-04 00:20 51.14517 -0.21320 1120 ft 169 kts 258°
2026-05-04 00:20 51.14277 -0.23171 1884 ft 171 kts 258°
2026-05-04 00:20 51.14023 -0.25149 2206 ft 195 kts 258°
2026-05-04 00:21 51.13761 -0.27412 2480 ft 219 kts 266°
2026-05-04 00:21 51.14089 -0.29812 3164 ft 229 kts 297°
2026-05-04 00:21 51.15170 -0.31662 3803 ft 238 kts 328°
2026-05-04 00:21 51.16788 -0.32275 3973 ft 240 kts
2026-05-04 00:22 51.18305 -0.31334 4007 ft 240 kts 40°
2026-05-04 00:22 51.19266 -0.29204 4008 ft 239 kts 74°
2026-05-04 00:22 51.19591 -0.26613 4010 ft 239 kts 82°
2026-05-04 00:22 51.19888 -0.23999 4009 ft 240 kts 81°
2026-05-04 00:23 51.20197 -0.21390 4006 ft 240 kts 81°
2026-05-04 00:23 51.20528 -0.18692 4025 ft 262 kts 79°
2026-05-04 00:23 51.20907 -0.15741 4236 ft 278 kts 79°
2026-05-04 00:23 51.21306 -0.12737 5193 ft 276 kts 79°
2026-05-04 00:24 51.21711 -0.09729 6067 ft 279 kts 79°
2026-05-04 00:24 51.22122 -0.06671 6899 ft 283 kts 79°
2026-05-04 00:24 51.22530 -0.03578 7714 ft 287 kts 79°
2026-05-04 00:24 51.22940 -0.00436 8530 ft 291 kts 79°
2026-05-04 00:25 51.23355 0.02745 9342 ft 296 kts 79°
2026-05-04 00:25 51.23776 0.05976 10131 ft 300 kts 79°
2026-05-04 00:25 51.24211 0.09357 10459 ft 322 kts 79°
2026-05-04 00:25 51.24675 0.12986 10659 ft 345 kts 79°
2026-05-04 00:26 51.25164 0.16819 11116 ft 356 kts 81°
2026-05-04 00:26 51.25379 0.20761 11783 ft 359 kts 92°
2026-05-04 00:26 51.25160 0.24737 12494 ft 361 kts 99°
2026-05-04 00:26 51.24860 0.28680 13224 ft 364 kts 99°
2026-05-04 00:27 51.24552 0.32719 13929 ft 367 kts 99°
2026-05-04 00:27 51.24240 0.36786 14554 ft 371 kts 99°
2026-05-04 00:27 51.23926 0.40887 15169 ft 375 kts 99°
2026-05-04 00:27 51.23607 0.45040 15781 ft 379 kts 99°
2026-05-04 00:28 51.23282 0.49239 16381 ft 383 kts 99°
2026-05-04 00:28 51.22952 0.53477 16974 ft 387 kts 99°
2026-05-04 00:28 51.22614 0.57774 17572 ft 391 kts 99°
2026-05-04 00:28 51.22275 0.62094 18171 ft 395 kts 99°
2026-05-04 00:29 51.21933 0.66464 18707 ft 399 kts 99°
2026-05-04 00:29 51.21585 0.70873 19227 ft 402 kts 99°
2026-05-04 00:29 51.21232 0.75324 19743 ft 406 kts 99°
2026-05-04 00:29 51.20875 0.79814 20255 ft 409 kts 99°
2026-05-04 00:30 51.20515 0.84327 20778 ft 412 kts 99°
2026-05-04 00:30 51.20158 0.88812 21279 ft 415 kts 100°
2026-05-04 00:30 51.19790 0.93399 21778 ft 419 kts 100°
2026-05-04 00:30 51.19413 0.98029 22262 ft 422 kts 100°
2026-05-04 00:31 51.19030 1.02683 22766 ft 425 kts 101°
2026-05-04 00:31 51.18642 1.07389 23273 ft 429 kts 101°
2026-05-04 00:31 51.18253 1.12100 23728 ft 432 kts 101°
2026-05-04 00:31 51.17859 1.16861 24149 ft 435 kts 101°
2026-05-04 00:32 51.17459 1.21653 24562 ft 438 kts 101°
2026-05-04 00:32 51.17052 1.26476 24962 ft 441 kts 101°
2026-05-04 00:32 51.16641 1.31340 25371 ft 444 kts 102°
2026-05-04 00:32 51.16229 1.36221 25779 ft 447 kts 101°
2026-05-04 00:33 51.15885 1.41158 26178 ft 451 kts 99°
2026-05-04 00:33 51.15418 1.51208 26890 ft 459 kts 98°
2026-05-04 00:33 51.15225 1.56310 27275 ft 462 kts 98°
2026-05-04 00:34 51.15023 1.61439 27644 ft 465 kts 98°
2026-05-04 00:34 51.14800 1.66590 28022 ft 468 kts 99°
2026-05-04 00:34 51.14554 1.71774 28393 ft 471 kts 99°
2026-05-04 00:34 51.14290 1.76997 28761 ft 474 kts 99°
2026-05-04 00:35 51.14016 1.82234 29118 ft 476 kts 100°
2026-05-04 00:35 51.13736 1.87510 29450 ft 479 kts 100°
2026-05-04 00:35 51.13453 1.92812 29702 ft 483 kts 101°
2026-05-04 00:35 51.13164 1.98171 29892 ft 487 kts 100°
2026-05-04 00:36 51.12892 2.03495 30087 ft 490 kts 101°
2026-05-04 00:36 51.12609 2.08910 30300 ft 492 kts 101°
2026-05-04 00:36 51.12322 2.14348 30604 ft 492 kts 101°
2026-05-04 00:36 51.12031 2.19760 30969 ft 491 kts 101°
2026-05-04 00:37 51.11737 2.25178 31334 ft 490 kts 101°
2026-05-04 00:37 51.11444 2.30571 31698 ft 490 kts 101°
2026-05-04 00:37 51.11147 2.35971 32051 ft 489 kts 101°
2026-05-04 00:37 51.10844 2.41368 32338 ft 490 kts 101°
2026-05-04 00:38 51.10539 2.46759 32624 ft 491 kts 101°
2026-05-04 00:38 51.10229 2.52173 32948 ft 491 kts 101°
2026-05-04 00:38 51.09913 2.57607 33289 ft 491 kts 101°
2026-05-04 00:38 51.09580 2.63002 33627 ft 488 kts 104°
2026-05-04 00:39 51.08916 2.68264 33953 ft 481 kts 112°
2026-05-04 00:39 51.07994 2.73359 34232 ft 479 kts 112°
2026-05-04 00:39 51.07071 2.78440 34530 ft 478 kts 112°
2026-05-04 00:39 51.06148 2.83527 34828 ft 477 kts 112°
2026-05-04 00:40 51.05228 2.88592 34920 ft 477 kts 112°
2026-05-04 00:40 51.03415 2.98577 34946 ft 472 kts 112°
2026-05-04 00:41 51.01565 3.08652 34948 ft 471 kts 112°
2026-05-04 00:41 50.99726 3.18568 34942 ft 471 kts 112°
2026-05-04 00:42 50.97882 3.28499 34943 ft 471 kts 112°
2026-05-04 00:42 50.96021 3.38469 34918 ft 472 kts 112°
2026-05-04 00:43 50.94143 3.48466 34929 ft 473 kts 113°
2026-05-04 00:43 50.92256 3.58485 34944 ft 474 kts 113°
2026-05-04 00:44 50.90357 3.68495 34950 ft 475 kts 113°
2026-05-04 00:44 50.88440 3.78503 34950 ft 475 kts 112°
2026-05-04 00:45 50.86513 3.88543 34948 ft 476 kts 112°
2026-05-04 00:45 50.84577 3.98574 34959 ft 477 kts 113°
2026-05-04 00:46 50.82626 4.08613 34963 ft 478 kts 113°
2026-05-04 00:46 50.80674 4.18594 34968 ft 478 kts 113°
2026-05-04 00:47 50.78708 4.28629 34956 ft 478 kts 112°
2026-05-04 00:47 50.76729 4.38678 34965 ft 478 kts 112°
2026-05-04 00:48 50.74742 4.48691 34969 ft 478 kts 112°
2026-05-04 00:48 50.72749 4.58697 34972 ft 478 kts 113°
2026-05-04 00:49 50.70742 4.68707 34951 ft 478 kts 113°
2026-05-04 00:49 50.68733 4.78683 34983 ft 477 kts 113°
2026-05-04 00:50 50.66717 4.88646 34991 ft 476 kts 113°
2026-05-04 00:50 50.64704 4.98526 34991 ft 475 kts 113°
2026-05-04 00:51 50.62681 5.08435 34997 ft 475 kts 113°
2026-05-04 00:51 50.60651 5.18332 34974 ft 475 kts 113°
2026-05-04 00:52 50.58606 5.28207 34985 ft 474 kts 113°
2026-05-04 00:52 50.56552 5.38063 34993 ft 474 kts 113°
2026-05-04 00:53 50.54497 5.47916 34997 ft 474 kts 113°
2026-05-04 00:53 50.52440 5.57768 34986 ft 474 kts 113°
2026-05-04 00:54 50.50417 5.67598 34983 ft 474 kts 112°
2026-05-04 00:54 50.48561 5.77564 34940 ft 475 kts 110°
2026-05-04 00:54 50.47662 5.82547 34696 ft 473 kts 110°
2026-05-04 00:55 50.46760 5.87519 34453 ft 474 kts 110°
2026-05-04 00:55 50.45845 5.92487 34216 ft 474 kts 111°
2026-05-04 00:55 50.44913 5.97459 33981 ft 475 kts 111°
2026-05-04 00:55 50.43968 6.02441 33675 ft 476 kts 111°
2026-05-04 00:56 50.43017 6.07414 33404 ft 476 kts 111°
2026-05-04 00:56 50.42063 6.12387 32916 ft 477 kts 111°
2026-05-04 00:56 50.41096 6.17417 31857 ft 485 kts 111°
2026-05-04 00:56 50.40134 6.22423 30945 ft 488 kts 111°
2026-05-04 00:57 50.39151 6.27529 30120 ft 490 kts 112°
2026-05-04 00:57 50.38174 6.32611 29536 ft 483 kts 112°
2026-05-04 00:57 50.37215 6.37620 28953 ft 478 kts 112°
2026-05-04 00:57 50.36422 6.42669 28345 ft 477 kts 104°
2026-05-04 00:58 50.36044 6.47800 27739 ft 474 kts 99°
2026-05-04 00:58 50.35742 6.52897 27171 ft 468 kts 99°
2026-05-04 00:58 50.35431 6.57940 26595 ft 462 kts 99°
2026-05-04 00:58 50.35111 6.62928 26024 ft 457 kts 100°
2026-05-04 00:59 50.34785 6.67846 25470 ft 451 kts 100°
2026-05-04 00:59 50.34462 6.72709 24917 ft 446 kts 100°
2026-05-04 00:59 50.34146 6.77518 24378 ft 441 kts 100°
2026-05-04 00:59 50.33832 6.82264 23841 ft 435 kts 102°
2026-05-04 01:00 50.33216 6.86825 23303 ft 424 kts 112°
2026-05-04 01:00 50.32172 6.91061 22800 ft 411 kts 121°
2026-05-04 01:00 50.30984 6.95020 22337 ft 403 kts 120°
2026-05-04 01:00 50.29805 6.98964 21902 ft 396 kts 120°
2026-05-04 01:01 50.28651 7.02836 21469 ft 391 kts 120°
2026-05-04 01:01 50.27516 7.06652 21040 ft 384 kts 120°
2026-05-04 01:01 50.26399 7.10419 20596 ft 379 kts 120°
2026-05-04 01:01 50.25291 7.14141 20155 ft 376 kts 120°
2026-05-04 01:02 50.24186 7.17828 19716 ft 374 kts 120°
2026-05-04 01:02 50.23080 7.21500 19257 ft 371 kts 120°
2026-05-04 01:02 50.21983 7.25128 18804 ft 369 kts 120°
2026-05-04 01:02 50.20887 7.28744 18333 ft 367 kts 120°
2026-05-04 01:03 50.19800 7.32337 17821 ft 364 kts 119°
2026-05-04 01:03 50.18796 7.35956 17318 ft 363 kts 116°
2026-05-04 01:03 50.17892 7.39623 16862 ft 359 kts 114°
2026-05-04 01:03 50.17051 7.43275 16386 ft 357 kts 113°
2026-05-04 01:04 50.16229 7.46908 15908 ft 353 kts 113°
2026-05-04 01:04 50.15410 7.50504 15431 ft 350 kts 113°
2026-05-04 01:04 50.14584 7.54059 14964 ft 347 kts 114°
2026-05-04 01:04 50.13765 7.57521 14498 ft 344 kts 114°
2026-05-04 01:05 50.12931 7.60997 14032 ft 341 kts 114°
2026-05-04 01:05 50.12098 7.64443 13529 ft 338 kts 114°
2026-05-04 01:05 50.11226 7.67807 13056 ft 333 kts 120°
2026-05-04 01:05 50.10026 7.70899 12795 ft 341 kts 129°
2026-05-04 01:06 50.09097 7.72957 12653 ft 348 kts 128°
2026-05-04 01:06 50.07253 7.77081 12340 ft 351 kts 128°
2026-05-04 01:06 50.06316 7.79190 12171 ft 350 kts 128°
2026-05-04 01:06 50.04934 7.82305 11952 ft 350 kts 128°
2026-05-04 01:07 50.03573 7.85380 11704 ft 349 kts 128°
2026-05-04 01:07 50.02199 7.88483 11476 ft 348 kts 128°
2026-05-04 01:07 50.01059 7.91813 11228 ft 351 kts 114°
2026-05-04 01:07 50.00499 7.95518 10986 ft 355 kts 98°
2026-05-04 01:08 50.00589 7.99368 10877 ft 358 kts 82°
2026-05-04 01:08 50.01299 8.03074 10764 ft 360 kts 70°
2026-05-04 01:08 50.02193 8.06709 10648 ft 359 kts 70°
2026-05-04 01:08 50.03081 8.10335 10522 ft 359 kts 70°
2026-05-04 01:09 50.03963 8.13938 10392 ft 349 kts 70°
2026-05-04 01:09 50.04808 8.17396 10267 ft 334 kts 70°
2026-05-04 01:09 50.05611 8.20699 10134 ft 320 kts 70°
2026-05-04 01:09 50.06389 8.23907 9849 ft 314 kts 70°
2026-05-04 01:10 50.07153 8.27059 9705 ft 312 kts 70°
2026-05-04 01:10 50.07919 8.30222 9570 ft 313 kts 70°
2026-05-04 01:10 50.08686 8.33395 9449 ft 312 kts 70°
2026-05-04 01:10 50.09446 8.36556 9302 ft 312 kts 70°
2026-05-04 01:11 50.10206 8.39713 9185 ft 311 kts 70°
2026-05-04 01:11 50.10965 8.42866 9051 ft 310 kts 70°
2026-05-04 01:11 50.11718 8.46006 8902 ft 309 kts 70°
2026-05-04 01:11 50.12470 8.49149 8783 ft 309 kts 70°
2026-05-04 01:12 50.13218 8.52274 8650 ft 308 kts 70°
2026-05-04 01:12 50.13966 8.55409 8522 ft 307 kts 70°
2026-05-04 01:12 50.14701 8.58492 8396 ft 307 kts 70°
2026-05-04 01:12 50.15451 8.61643 8267 ft 306 kts 70°
2026-05-04 01:13 50.16181 8.64715 8144 ft 305 kts 70°
2026-05-04 01:13 50.16915 8.67811 8022 ft 304 kts 70°
2026-05-04 01:13 50.17657 8.70948 7893 ft 304 kts 70°
2026-05-04 01:13 50.18370 8.73972 7643 ft 300 kts 70°
2026-05-04 01:14 50.19102 8.77064 7416 ft 300 kts 70°
2026-05-04 01:14 50.19823 8.80119 7192 ft 299 kts 70°
2026-05-04 01:14 50.20531 8.83121 6864 ft 298 kts 70°
2026-05-04 01:14 50.21244 8.86152 6496 ft 296 kts 70°
2026-05-04 01:15 50.21954 8.89171 6121 ft 295 kts 70°
2026-05-04 01:15 50.22655 8.92159 5731 ft 293 kts 70°
2026-05-04 01:15 50.23337 8.95149 5359 ft 291 kts 74°
2026-05-04 01:15 50.23517 8.98252 5060 ft 284 kts 97°
2026-05-04 01:16 50.23040 9.01125 5023 ft 264 kts 122°
2026-05-04 01:16 50.21878 9.03142 5029 ft 244 kts 153°
2026-05-04 01:16 50.20309 9.03953 5033 ft 236 kts 178°
2026-05-04 01:16 50.18684 9.04157 5031 ft 235 kts 182°
2026-05-04 01:17 50.17111 9.03758 5026 ft 227 kts 207°
2026-05-04 01:17 50.15761 9.02588 5030 ft 224 kts 220°
2026-05-04 01:17 50.14752 9.00789 5029 ft 221 kts 238°
2026-05-04 01:17 50.13918 8.98761 5024 ft 221 kts 239°
2026-05-04 01:18 50.13156 8.96690 5029 ft 221 kts 244°
2026-05-04 01:18 50.12514 8.94532 5029 ft 219 kts 248°
2026-05-04 01:18 50.11963 8.92333 4876 ft 215 kts 250°
2026-05-04 01:18 50.11456 8.90183 4572 ft 213 kts 250°
2026-05-04 01:19 50.10948 8.88012 4286 ft 213 kts 250°
2026-05-04 01:19 50.10443 8.85865 4012 ft 202 kts 250°
2026-05-04 01:19 50.09987 8.83931 3751 ft 178 kts 250°
2026-05-04 01:19 50.09589 8.82241 3531 ft 156 kts 250°
2026-05-04 01:20 50.09231 8.80719 3332 ft 149 kts 250°
2026-05-04 01:20 50.08874 8.79206 3130 ft 148 kts 250°
2026-05-04 01:20 50.08520 8.77704 2927 ft 147 kts 250°
2026-05-04 01:20 50.08167 8.76209 2733 ft 146 kts 250°
2026-05-04 01:21 50.07815 8.74725 2522 ft 146 kts 249°
2026-05-04 01:21 50.07463 8.73235 2338 ft 146 kts 249°
2026-05-04 01:21 50.07112 8.71752 2138 ft 146 kts 249°
2026-05-04 01:21 50.06762 8.70272 1943 ft 146 kts 249°
2026-05-04 01:22 50.06412 8.68795 1740 ft 145 kts 248°
2026-05-04 01:22 50.06064 8.67326 1554 ft 146 kts 248°
2026-05-04 01:22 50.05711 8.65840 1352 ft 147 kts 248°
2026-05-04 01:22 50.05353 8.64335 1102 ft 149 kts 249°
2026-05-04 01:23 50.04989 8.62804 864 ft 152 kts 249°
2026-05-04 01:23 50.04623 8.61258 705 ft 153 kts 249°
2026-05-04 01:23 50.04258 8.59707 493 ft 153 kts 249°
2026-05-04 01:23 50.03890 8.58159 374 ft 152 kts 249°
2026-05-04 01:24 50.03536 8.56700 354 ft 126 kts 249°
2026-05-04 01:24 50.03311 8.55942 352 ft 28 kts 233°
2026-05-04 01:24 50.03299 8.55909 349 ft 0 kts 248°